Location: ???
(32.0437°N, 34.9207°E)
Time: 05:47:41
(UTC+00:00)

Daily predictions for brighter satellites

Satellite Brightness Start Highest point End
(mag) Time Altitude Azimuth Time Altitude Azimuth Time Altitude Azimuth
STARLINK-24 4.0 00:06:07 57° NNE 00:06:07 57° NNE 00:09:25 10° NE
IDEFIX/ARIANE 42P 4.4 00:01:12 10° NE 00:05:27 25° E 00:08:32 15° SE
CZ-4B R/B 4.1 00:00:28 10° N 00:05:27 44° WNW 00:05:31 44° WNW
Cosmos 1869 4.1 00:02:04 10° N 00:04:48 45° N 00:04:48 45° N
STARLINK-1014 3.9 00:08:11 61° ENE 00:08:11 61° ENE 00:11:42 10° NE
IRS-1D 3.5 00:04:51 10° N 00:10:00 61° WNW 00:10:21 59° W
IRS-1C 4.1 00:05:25 10° NNE 00:10:46 82° ESE 00:11:54 57° S
Lacrosse 5 rocket 3.6 00:11:38 14° SE 00:11:58 14° ESE 00:14:12 10° E
Nadezhda 3 Rocket 3.9 00:05:57 10° N 00:12:17 79° W 00:14:22 45° S
STARLINK-1025 3.7 00:12:55 72° ENE 00:12:55 72° ENE 00:16:42 10° NE
IRS-P3 Rocket 4.5 00:07:22 10° N 00:12:39 73° WNW 00:13:22 63° SW
STARLINK-1017 3.6 00:17:42 82° NNE 00:17:42 82° NNE 00:21:41 10° NE
USA 229 DEB 4.0 00:10:35 10° NNW 00:18:03 78° ENE 00:25:45 10° SSE
USA 229 4.0 00:10:42 10° NNW 00:18:09 77° ENE 00:25:51 10° SE
SL-19 R/B 4.5 00:14:18 10° NNE 00:18:15 60° E 00:18:15 60° E
ARIANE 5 R/B 2.6 00:13:38 10° NNE 00:18:37 70° ESE 00:19:58 47° SSE
NOSS 3-1 (C) 4.2 00:11:42 10° NNW 00:19:45 87° ENE 00:28:42 10° SSE
STARLINK-1023 3.5 00:22:28 78° NW 00:22:29 78° NW 00:26:38 10° NE
Meteor 2-2 Rocket 4.3 00:18:52 10° NNW 00:24:48 63° W 00:26:31 45° SSW
Cosmos 2237 4.2 00:24:16 50° SW 00:25:43 72° WNW 00:31:28 10° NNE
STARLINK-1007 3.6 00:27:17 68° WNW 00:27:30 70° NW 00:31:38 10° NE
STARLINK-25 4.2 00:28:06 38° NNW 00:28:06 38° NNW 00:31:03 10° NNE
Cosmos 2221 3.4 00:23:52 10° NNW 00:27:11 36° WNW 00:27:11 36° WNW
Resurs 1-4 Rocket 3.8 00:24:42 10° NNW 00:28:17 19° WNW 00:28:43 19° WNW
SL-24 DEB 4.5 00:25:55 10° NNE 00:30:29 64° E 00:32:22 34° SSE
STARLINK-1048 3.7 00:32:03 58° WNW 00:32:27 62° NW 00:36:34 10° NE
GEOS 3 Rocket 3.5 00:30:47 10° SSE 00:35:55 83° WSW 00:41:11 10° NNW
STARLINK-81 4.3 00:37:10 35° NW 00:37:24 35° NW 00:40:47 10° NNE
STARLINK-1049 3.9 00:36:51 49° W 00:37:28 55° NW 00:41:32 10° NE
SL-16 R/B 3.6 00:36:40 22° W 00:37:59 23° WNW 00:42:28 10° N
Cosmos 1825 1.9 00:38:23 71° WSW 00:38:37 75° W 00:42:22 10° N
Cosmos 1408 3.3 00:40:11 39° WNW 00:40:11 39° WNW 00:43:18 10° N
COSMOS 2428 3.8 00:36:13 17° SSE 00:40:00 39° ESE 00:45:14 10° NE
STARLINK-77 4.4 00:40:18 32° NW 00:40:40 33° NW 00:44:00 10° NNE
Cosmos 2341 Rocket 4.2 00:38:54 36° SW 00:41:18 55° W 00:47:31 10° N
STARLINK-1051 4.1 00:41:36 42° W 00:42:25 49° NW 00:46:26 10° NNE
Cosmos 1844 Rocket 4.2 00:40:02 10° N 00:45:11 37° ENE 00:50:16 10° SE
Cosmos 1125 Rocket 4.1 00:40:58 10° NW 00:45:36 33° W 00:45:45 33° WSW
Spot 4 Rocket 3.9 00:42:49 10° N 00:47:58 84° WNW 00:50:32 31° SSW
COBE Rocket 3.9 00:45:27 21° S 00:48:53 84° W 00:54:01 10° NNW
CZ-3 R/B 4.2 00:19:09 22° WSW 00:51:43 65° SSE 01:02:56 10° E
STARLINK-1028 4.5 00:51:11 31° W 00:52:25 40° NW 00:56:20 10° NNE
BREEZE M DEB (TANK) 3.9 00:49:36 10° WNW 00:53:16 62° SW 01:06:05 10° SE
Cosmos 1959 Rocket 4.4 00:51:05 25° SSW 00:54:49 74° W 01:00:56 10° N
Cosmos 1538 Rocket 4.0 00:53:52 30° SSW 00:56:32 75° WNW 01:01:55 10° NNE
Cosmos 2360 Rocket 3.0 00:59:08 26° WSW 01:01:23 35° WNW 01:06:31 10° N
STARLINK-1027 4.4 01:02:46 25° S 01:04:43 42° SE 01:08:39 10° ENE
SL-8 Rocket 4.3 01:01:42 25° SW 01:05:03 48° W 01:11:05 10° N
Cosmos 2218 Rocket 4.2 01:03:10 23° SSW 01:07:09 57° W 01:13:26 10° N
Cosmos 1408 Rocket 3.5 01:06:21 18° S 01:09:30 84° E 01:13:49 10° N
STARLINK-1060 4.2 01:07:32 24° SSW 01:09:40 48° SE 01:13:39 10° NE
Cosmos 2333 Rocket 2.1 01:07:13 21° SSW 01:11:07 86° WNW 01:16:49 10° NNE
CZ-4C R/B 3.1 01:08:33 10° SSE 01:12:10 86° ENE 01:15:49 10° N
SL-08 R/B 3.8 01:10:27 25° SW 01:12:25 36° W 01:16:40 10° NNW
STARLINK-1030 4.0 01:12:19 23° SSW 01:14:38 54° SE 01:18:40 10° NE
Cosmos 2344 3.7 01:09:53 14° SSW 01:16:41 71° ESE 01:24:12 10° NE
SL-16 Debris 3.5 01:16:41 33° SSW 01:17:24 42° S 01:21:28 10° E
Cosmos 2322 4.1 01:14:12 22° SW 01:17:40 50° WNW 01:23:14 10° N
STARLINK-1020 3.9 01:17:06 22° SSW 01:19:35 62° SE 01:23:41 10° NE
Cosmos 2219 Rocket 2.1 01:15:26 18° SSW 01:19:36 78° WNW 01:25:12 10° NNE
Meteor 1-28 Rocket 4.0 01:21:17 23° SW 01:22:47 32° W 01:26:10 10° NNW
STARLINK-1052 3.7 01:21:53 21° SSW 01:24:33 70° SE 01:28:40 10° NE
H-2A R/B 2.2 01:21:26 10° S 01:25:42 55° W 01:30:06 10° NNW
Cosmos 1766 Rocket 4.4 01:24:15 21° SW 01:26:22 32° W 01:30:15 10° NNW
BREEZE-M DEB (TANK) 3.3 01:24:07 17° WSW 01:28:25 59° NW 01:31:24 10° NE
SL-4 R/B 2.2 01:23:45 10° NW 01:28:28 82° SW 01:32:52 10° SE
deb Chang Zheng 4 3.5 01:27:09 10° NNE 01:31:25 87° ESE 01:35:40 10° SSW
Cosmos 1151 Rocket 3.0 01:27:31 10° NNW 01:31:53 70° W 01:36:13 10° S
Delta 2 Rocket 4.1 01:27:59 16° WSW 01:32:40 50° S 01:38:27 10° ESE
ATLAS 5 CENTAUR R/B 1.6 01:29:49 13° SSW 01:33:15 65° ESE 01:37:29 10° NE
Cosmos 2263 Rocket 3.9 01:31:28 10° WNW 01:33:25 12° W 01:33:32 12° W
STARLINK-1033 3.6 01:31:27 18° SW 01:34:30 89° SE 01:38:39 10° NE
ERS-2 3.3 01:36:08 16° SW 01:38:03 24° W 01:41:03 10° NW
Cosmos 1606 3.0 01:35:08 10° NNW 01:38:45 45° W 01:42:22 10° SSW
ADEOS II 4.2 01:38:23 10° WNW 01:38:55 10° WNW 01:39:28 10° WNW
Cosmos 1515 Rocket 3.7 01:34:45 10° N 01:39:07 75° E 01:43:25 10° S
STARLINK-1031 3.6 01:36:14 16° SW 01:39:28 82° NW 01:43:37 10° NE
Meteor 2-3 Rocket 3.8 01:35:01 10° SSW 01:40:30 57° W 01:46:00 10° N
USA 32 4.1 01:35:43 10° S 01:40:56 88° E 01:46:12 10° N
CZ-2C R/B 4.0 01:37:51 10° NNW 01:41:01 25° WNW 01:43:31 14° WSW
CZ-3A R/B 4.0 01:37:38 10° SSW 01:42:47 33° SE 01:59:52 10° E
STARLINK-60 3.3 01:40:17 10° WNW 01:43:19 41° SW 01:46:21 10° SSE
STARLINK-1024 3.7 01:41:01 14° SW 01:44:27 73° NW 01:48:35 10° NE
USA 234 3.9 01:38:31 10° NE 01:44:51 51° SE 01:51:08 10° SSW
IDEFIX/ARIANE 42P 3.5 01:40:23 10° N 01:44:58 31° WNW 01:49:21 11° SW
Cosmos 1844 3.7 01:39:43 10° NNW 01:45:32 79° WSW 01:51:16 10° SSE
CZ-2C R/B 2.6 01:40:47 10° NNE 01:46:00 84° ESE 01:51:08 10° S
BREEZE-M TANK 2.1 01:45:07 13° WSW 01:48:14 78° NW 01:51:25 10° NE
SAR-Lupe-4 3.5 01:45:06 10° S 01:48:40 82° WSW 01:52:16 10° NNW
Cosmos 1980 4.1 01:43:11 10° S 01:48:45 64° ESE 01:54:20 10° NNE
STARLINK-1035 3.8 01:45:48 13° SW 01:49:25 65° NW 01:53:32 10° NE
Lacrosse 5 rocket 1.9 01:47:17 12° WSW 01:50:49 44° NW 01:54:34 10° NNE
STARLINK-1032 3.9 01:50:35 11° WSW 01:54:24 57° NW 01:58:29 10° NE
STARLINK-1037 4.0 01:53:58 10° WSW 01:57:55 52° NW 02:01:57 10° NNE
ADEOS 3.6 01:53:25 10° NNE 01:58:39 85° WNW 02:03:51 10° SSW
Cosmos 1743 Rocket 3.8 01:54:50 10° SSW 01:59:06 50° W 02:03:21 10° N
STARLINK-1011 4.1 01:55:21 10° WSW 01:59:23 51° NW 02:03:25 10° NNE
STARLINK-1444 3.3 02:00:30 10° WNW 02:02:33 25° SW 02:04:43 10° S
STARLINK-1452 3.3 02:01:08 10° WNW 02:03:10 25° SW 02:05:19 10° S
SAR-Lupe-1 4.2 02:00:54 10° S 02:04:21 51° W 02:07:49 10° NNW
STARLINK-1450 3.4 02:02:23 10° WNW 02:04:21 23° SW 02:06:26 10° S
STARLINK-1036 4.2 02:00:24 10° WSW 02:04:22 46° NW 02:08:22 10° NNE
STARLINK-1436 (VISORSAT) 3.4 02:02:26 10° WNW 02:04:27 24° SW 02:06:34 10° S
STARLINK-1392 3.4 02:02:30 10° WNW 02:04:29 23° SW 02:06:34 10° S
STARLINK-1399 3.4 02:02:31 10° WNW 02:04:30 23° SW 02:06:35 10° S
STARLINK-1415 3.4 02:02:32 10° WNW 02:04:30 23° SW 02:06:35 10° S
STARLINK-1394 3.4 02:02:32 10° WNW 02:04:31 23° SW 02:06:36 10° S
STARLINK-1395 3.4 02:02:32 10° WNW 02:04:31 23° SW 02:06:36 10° S
STARLINK-1393 3.4 02:02:32 10° WNW 02:04:31 23° SW 02:06:36 10° S
STARLINK-1414 3.4 02:02:31 10° WNW 02:04:31 23° SW 02:06:37 10° S
STARLINK-1398 3.4 02:02:31 10° WNW 02:04:31 24° SW 02:06:38 10° S
STARLINK-1396 3.4 02:02:33 10° WNW 02:04:32 23° SW 02:06:37 10° S
STARLINK-1397 3.4 02:02:33 10° WNW 02:04:32 23° SW 02:06:37 10° S
STARLINK-1401 3.4 02:02:33 10° WNW 02:04:32 23° SW 02:06:37 10° S
STARLINK-1416 3.4 02:02:32 10° WNW 02:04:32 23° SW 02:06:38 10° S
STARLINK-1404 3.4 02:02:34 10° WNW 02:04:33 23° SW 02:06:38 10° S
STARLINK-1453 3.4 02:02:35 10° WNW 02:04:33 23° SW 02:06:38 10° S
STARLINK-1408 3.4 02:02:33 10° WNW 02:04:33 23° SW 02:06:40 10° S
STARLINK-1402 3.4 02:02:36 10° WNW 02:04:34 23° SW 02:06:39 10° S
STARLINK-1419 3.4 02:02:34 10° WNW 02:04:34 23° SW 02:06:41 10° S
STARLINK-1417 3.4 02:02:36 10° WNW 02:04:34 23° SW 02:06:39 10° S
STARLINK-1413 3.4 02:02:37 10° WNW 02:04:35 23° SW 02:06:40 10° S
STARLINK-1406 3.4 02:02:37 10° WNW 02:04:35 23° SW 02:06:40 10° S
STARLINK-1420 3.4 02:02:36 10° WNW 02:04:36 23° SW 02:06:44 10° S
STARLINK-1440 3.4 02:02:39 10° WNW 02:04:37 23° SW 02:06:42 10° S
STARLINK-1422 3.4 02:02:38 10° WNW 02:04:37 23° SW 02:06:45 10° S
STARLINK-1445 3.4 02:02:40 10° WNW 02:04:37 23° SW 02:06:43 10° S
STARLINK-1460 3.4 02:02:38 10° WNW 02:04:38 23° SW 02:06:45 10° S
STARLINK-1443 3.4 02:02:40 10° WNW 02:04:38 23° SW 02:06:44 10° S
STARLINK-1454 3.4 02:02:41 10° WNW 02:04:39 23° SW 02:06:44 10° S
STARLINK-1458 3.4 02:02:39 10° WNW 02:04:40 23° SW 02:06:46 10° S
STARLINK-1457 3.4 02:02:41 10° WNW 02:04:40 23° SW 02:06:45 10° S
STARLINK-1456 3.4 02:02:42 10° WNW 02:04:41 23° SW 02:06:45 10° S
STARLINK-1451 3.4 02:02:42 10° WNW 02:04:41 23° SW 02:06:45 10° S
STARLINK-1442 3.4 02:02:43 10° WNW 02:04:42 23° SW 02:06:46 10° S
STARLINK-1437 3.4 02:02:41 10° WNW 02:04:42 23° SW 02:06:49 10° S
STARLINK-1446 3.4 02:02:42 10° WNW 02:04:43 23° SW 02:06:50 10° S
STARLINK-1405 3.4 02:02:46 10° WNW 02:04:44 23° SW 02:06:49 10° S
STARLINK-1421 3.4 02:02:46 10° WNW 02:04:44 23° SW 02:06:49 10° S
STARLINK-1400 3.4 02:02:46 10° WNW 02:04:45 23° SW 02:06:49 10° S
STARLINK-1410 3.4 02:02:46 10° WNW 02:04:45 23° SW 02:06:49 10° S
STARLINK-1407 3.4 02:02:47 10° WNW 02:04:45 23° SW 02:06:50 10° S
STARLINK-1423 3.4 02:02:45 10° WNW 02:04:46 23° SW 02:06:52 10° S
STARLINK-1439 3.4 02:02:47 10° WNW 02:04:46 23° SW 02:06:50 10° S
STARLINK-1447 3.4 02:02:45 10° WNW 02:04:46 23° SW 02:06:53 10° S
STARLINK-1455 3.4 02:02:46 10° WNW 02:04:46 23° SW 02:06:53 10° S
STARLINK-1409 3.4 02:02:48 10° WNW 02:04:46 23° SW 02:06:51 10° S
STARLINK-1441 3.4 02:02:46 10° WNW 02:04:47 23° SW 02:06:54 10° S
STARLINK-1351 3.4 02:02:49 10° WNW 02:04:47 23° SW 02:06:52 10° S
STARLINK-1370 3.4 02:02:49 10° WNW 02:04:47 23° SW 02:06:52 10° S
STARLINK-1418 3.4 02:02:49 10° WNW 02:04:48 23° SW 02:06:52 10° S
STARLINK-1434 3.4 02:02:49 10° WNW 02:04:48 23° SW 02:06:52 10° S
STARLINK-1403 3.4 02:02:50 10° WNW 02:04:49 23° SW 02:06:53 10° S
STARLINK-1448 3.4 02:02:48 10° WNW 02:04:49 23° SW 02:06:55 10° S
STARLINK-1449 3.4 02:02:48 10° WNW 02:04:49 23° SW 02:06:56 10° S
STARLINK-1433 3.4 02:02:51 10° WNW 02:04:49 23° SW 02:06:54 10° S
STARLINK-1411 3.4 02:02:52 10° WNW 02:04:51 23° SW 02:06:55 10° S
STARLINK-1438 3.4 02:02:53 10° WNW 02:04:51 23° SW 02:06:56 10° S
STARLINK-1412 3.4 02:02:56 10° WNW 02:04:56 23° SW 02:07:03 10° S
SL-24 R/B - RUBIN 2 4.3 02:00:28 10° SSW 02:06:00 85° WNW 02:12:18 10° NNE
Cosmos 158 Rocket 4.1 02:01:38 10° SSW 02:06:38 59° WNW 02:11:32 10° N
ALOS 3.7 02:02:54 10° NNE 02:07:17 39° E 02:11:37 10° SSE
Cosmos 1633 3.4 02:04:26 10° SW 02:07:39 32° W 02:10:55 10° NNW
Cosmos 1680 Rocket 3.9 02:03:02 10° SW 02:08:05 49° WNW 02:13:13 10° N
CZ-4B R/B 4.4 02:05:18 10° NNE 02:08:34 32° E 02:11:48 10° SSE
STARLINK-1044 4.4 02:05:28 10° WSW 02:09:23 41° NW 02:13:19 10° NNE
Cosmos 2123 Rocket 4.4 02:06:22 10° N 02:12:37 70° E 02:18:49 10° SSE
